| time (UTC) | temp C | wind direction | speed KPH | gust KPH | rain 1hr cm | rain 24hr cm | rain mn cm | humidity % | barometer mb |
| 20260506092302 | 10 | 30 | 0.0 | 4.8 | 0.00 | 0.00 | 0.00 | 37 | 1012.3 |
| 20260506091802 | 10 | 322 | 1.6 | 11.3 | 0.00 | 0.00 | 0.00 | 36 | 1012.3 |
| 20260506091302 | 10 | 7 | 3.2 | 11.3 | 0.00 | 0.00 | 0.00 | 37 | 1012.3 |
| 20260506090802 | 10 | 11 | 3.2 | 4.8 | 0.00 | 0.00 | 0.00 | 38 | 1012.3 |
| 20260506090302 | 10 | 19 | 3.2 | 4.8 | 0.00 | 0.00 | 0.00 | 37 | 1012.3 |
| 20260506085305 | 10 | 30 | 1.6 | 4.8 | 0.00 | 0.00 | 0.00 | 40 | 1012.3 |
| 20260506084302 | 9 | 356 | 3.2 | 4.8 | 0.00 | 0.00 | 0.00 | 40 | 1012.3 |
| 20260506083302 | 9 | 48 | 3.2 | 4.8 | 0.00 | 0.00 | 0.00 | 42 | 1012.2 |
| 20260506082802 | 9 | 22 | 0.0 | 4.8 | 0.00 | 0.00 | 0.00 | 44 | 1012.2 |
| 20260506082304 | 8 | 25 | 3.2 | 4.8 | 0.00 | 0.00 | 0.00 | 45 | 1012.2 |
| 20260506081802 | 8 | 3 | 1.6 | 3.2 | 0.00 | 0.00 | 0.00 | 47 | 1012.2 |
| 20260506081302 | 8 | 39 | 3.2 | 4.8 | 0.00 | 0.00 | 0.00 | 46 | 1012.0 |
| 20260506080802 | 8 | 40 | 3.2 | 4.8 | 0.00 | 0.00 | 0.00 | 47 | 1012.0 |
| 20260506073302 | 7 | 0 | 3.2 | 4.8 | 0.00 | 0.00 | 0.00 | 53 | 1010.1 |
| 20260506072803 | 7 | 20 | 1.6 | 4.8 | 0.00 | 0.00 | 0.00 | 54 | 1010.1 |
| 20260506072305 | 7 | 24 | 3.2 | 4.8 | 0.00 | 0.00 | 0.00 | 55 | 1010.1 |
| 20260506071803 | 7 | 24 | 1.6 | 4.8 | 0.00 | 0.00 | 0.00 | 57 | 1010.1 |
| 20260506071302 | 7 | 16 | 1.6 | 4.8 | 0.00 | 0.00 | 0.00 | 58 | 1010.1 |
| 20260506070802 | 7 | 40 | 3.2 | 4.8 | 0.00 | 0.00 | 0.00 | 58 | 1010.1 |
| 20260506070303 | 6 | 11 | 3.2 | 4.8 | 0.00 | 0.00 | 0.00 | 58 | 1010.1 |
| 20260506062305 | 6 | 3 | 0.0 | 3.2 | 0.00 | 0.00 | 0.00 | 65 | 1010.1 |
| 20260506061302 | 6 | 290 | 1.6 | 4.8 | 0.00 | 0.00 | 0.00 | 65 | 1010.1 |
| 20260506060803 | 6 | 288 | 1.6 | 4.8 | 0.00 | 0.00 | 0.00 | 66 | 1010.1 |
| 20260506060302 | 6 | 303 | 1.6 | 4.8 | 0.00 | 0.00 | 0.00 | 66 | 1010.1 |
| 20260506051302 | 5 | 276 | 1.6 | 4.8 | 0.00 | 0.00 | 0.00 | 76 | 1010.1 |
| 20260506050303 | 4 | 293 | 1.6 | 4.8 | 0.00 | 0.00 | 0.00 | 78 | 1010.1 |
| 20260506044302 | 3 | 355 | 1.6 | 4.8 | 0.00 | 0.00 | 0.00 | 84 | 1010.1 |
| 20260506043803 | 3 | 307 | 3.2 | 4.8 | 0.00 | 0.00 | 0.00 | 86 | 1010.1 |
| 20260506043302 | 3 | 358 | 1.6 | 4.8 | 0.00 | 0.00 | 0.00 | 88 | 1010.1 |
| 20260506042803 | 2 | 324 | 1.6 | 4.8 | 0.00 | 0.00 | 0.00 | 90 | 1010.1 |
| 20260506042305 | 2 | 269 | 3.2 | 4.8 | 0.00 | 0.00 | 0.00 | 93 | 1010.1 |
| 20260506041802 | 1 | 304 | 1.6 | 3.2 | 0.00 | 0.00 | 0.00 | 95 | 1010.1 |
| 20260506041303 | 1 | 206 | 0.0 | 1.6 | 0.00 | 0.00 | 0.00 | 95 | 1010.1 |
| 20260506040802 | 1 | 206 | 0.0 | 1.6 | 0.00 | 0.00 | 0.00 | 95 | 1010.1 |
| 20260506040303 | 1 | 206 | 0.0 | 1.6 | 0.00 | 0.00 | 0.00 | 95 | 1010.1 |
| 20260506035802 | 1 | 206 | 0.0 | 1.6 | 0.00 | 0.00 | 0.00 | 95 | 1010.1 |
| 20260506035305 | 1 | 207 | 0.0 | 3.2 | 0.00 | 0.00 | 0.00 | 95 | 1010.1 |
| 20260506034802 | 1 | 205 | 1.6 | 4.8 | 0.00 | 0.00 | 0.00 | 95 | 1010.1 |
| 20260506034303 | 0 | 252 | 1.6 | 3.2 | 0.00 | 0.00 | 0.00 | 95 | 1010.1 |
| 20260506033802 | 0 | 252 | 0.0 | 0.0 | 0.00 | 0.00 | 0.00 | 95 | 1010.1 |
| 20260506032803 | 0 | 252 | 0.0 | 3.2 | 0.00 | 0.00 | 0.00 | 95 | 1010.1 |
| 20260506032305 | 0 | 252 | 1.6 | 3.2 | 0.00 | 0.00 | 0.00 | 94 | 1010.1 |
| 20260506031802 | 0 | 252 | 0.0 | 1.6 | 0.00 | 0.00 | 0.00 | 95 | 1010.1 |
| 20260506031303 | 1 | 252 | 0.0 | 1.6 | 0.00 | 0.00 | 0.00 | 95 | 1010.1 |
| 20260506030802 | 1 | 252 | 1.6 | 3.2 | 0.00 | 0.00 | 0.00 | 95 | 1010.1 |
| 20260506030302 | 1 | 260 | 0.0 | 1.6 | 0.00 | 0.00 | 0.00 | 95 | 1010.1 |
| 20260506025803 | 1 | 260 | 0.0 | 3.2 | 0.00 | 0.00 | 0.00 | 95 | 1010.1 |
| 20260506025305 | 1 | 260 | 0.0 | 1.6 | 0.00 | 0.00 | 0.00 | 95 | 1010.1 |
| 20260506024803 | 1 | 279 | 0.0 | 3.2 | 0.00 | 0.00 | 0.00 | 96 | 1010.1 |
| 20260506024303 | 1 | 331 | 0.0 | 1.6 | 0.00 | 0.00 | 0.00 | 95 | 1010.1 |
| 20260506023802 | 1 | 331 | 0.0 | 1.6 | 0.00 | 0.00 | 0.00 | 95 | 1010.1 |
| 20260506023303 | 1 | 331 | 0.0 | 1.6 | 0.00 | 0.00 | 0.00 | 95 | 1010.1 |
| 20260506022803 | 1 | 331 | 0.0 | 1.6 | 0.00 | 0.00 | 0.00 | 95 | 1010.1 |
| 20260506022305 | 1 | 331 | 0.0 | 1.6 | 0.00 | 0.00 | 0.00 | 96 | 1010.1 |
| 20260506021802 | 1 | 301 | 0.0 | 3.2 | 0.00 | 0.00 | 0.00 | 96 | 1010.0 |
| 20260506020802 | 1 | 227 | 0.0 | 1.6 | 0.00 | 0.00 | 0.00 | 95 | 1009.7 |
| 20260506020303 | 1 | 217 | 0.0 | 0.0 | 0.00 | 0.00 | 0.00 | 95 | 1009.7 |
| 20260506015802 | 1 | 217 | 0.0 | 0.0 | 0.00 | 0.00 | 0.00 | 95 | 1009.7 |
| 20260506014803 | 1 | 217 | 0.0 | 0.0 | 0.00 | 0.00 | 0.00 | 95 | 1009.7 |
| 20260506014302 | 1 | 217 | 0.0 | 1.6 | 0.00 | 0.00 | 0.00 | 95 | 1009.7 |
| 20260506013803 | 1 | 217 | 0.0 | 0.0 | 0.00 | 0.00 | 0.00 | 95 | 1009.7 |
| 20260506013302 | 1 | 217 | 0.0 | 0.0 | 0.00 | 0.00 | 0.00 | 95 | 1009.7 |
| 20260506012803 | 1 | 217 | 0.0 | 1.6 | 0.00 | 0.00 | 0.00 | 95 | 1009.7 |
| 20260506011802 | 1 | 217 | 0.0 | 1.6 | 0.00 | 0.00 | 0.00 | 95 | 1009.6 |
| 20260506011303 | 1 | 217 | 0.0 | 1.6 | 0.00 | 0.00 | 0.00 | 95 | 1009.5 |
| 20260506010803 | 1 | 217 | 0.0 | 1.6 | 0.00 | 0.00 | 0.00 | 95 | 1009.5 |
| 20260506005803 | 1 | 215 | 0.0 | 1.6 | 0.00 | 0.00 | 0.00 | 95 | 1009.3 |
| 20260506005305 | 1 | 215 | 1.6 | 3.2 | 0.00 | 0.00 | 0.00 | 95 | 1009.3 |
| 20260506004802 | 1 | 215 | 0.0 | 1.6 | 0.00 | 0.00 | 0.00 | 95 | 1008.9 |
| 20260506004303 | 1 | 215 | 0.0 | 1.6 | 0.00 | 0.00 | 0.00 | 95 | 1008.9 |
| 20260506003803 | 1 | 215 | 0.0 | 1.6 | 0.00 | 0.00 | 0.00 | 95 | 1008.9 |
| 20260506003303 | 2 | 215 | 1.6 | 4.8 | 0.00 | 0.00 | 0.00 | 95 | 1008.9 |
| 20260506002305 | 2 | 215 | 0.0 | 4.8 | 0.00 | 0.00 | 0.00 | 95 | 1008.9 |
| 20260506001303 | 1 | 223 | 0.0 | 0.0 | 0.00 | 0.00 | 0.00 | 95 | 1008.9 |
| 20260506000803 | 1 | 223 | 0.0 | 1.6 | 0.00 | 0.00 | 0.00 | 95 | 1008.9 |
| 20260506000302 | 1 | 223 | 0.0 | 3.2 | 0.00 | 0.00 | 0.00 | 95 | 1008.9 |
| 20260505235305 | 1 | 223 | 1.6 | 3.2 | 0.00 | 0.00 | 0.00 | 95 | 1008.9 |
| 20260505234802 | 1 | 223 | 1.6 | 4.8 | 0.00 | 0.00 | 0.00 | 95 | 1008.9 |
| 20260505234302 | 1 | 223 | 1.6 | 3.2 | 0.00 | 0.00 | 0.00 | 94 | 1008.9 |
| 20260505233803 | 1 | 223 | 1.6 | 3.2 | 0.00 | 0.00 | 0.00 | 94 | 1008.8 |
| 20260505233303 | 1 | 223 | 0.0 | 3.2 | 0.00 | 0.00 | 0.00 | 94 | 1008.8 |
| 20260505232803 | 2 | 223 | 0.0 | 0.0 | 0.00 | 0.00 | 0.00 | 95 | 1008.8 |
| 20260505232305 | 2 | 223 | 0.0 | 1.6 | 0.00 | 0.00 | 0.00 | 95 | 1008.8 |
| 20260505231802 | 2 | 223 | 0.0 | 1.6 | 0.00 | 0.00 | 0.00 | 94 | 1008.8 |
| 20260505231303 | 2 | 223 | 1.6 | 3.2 | 0.00 | 0.00 | 0.00 | 95 | 1008.8 |
| 20260505230803 | 3 | 265 | 0.0 | 1.6 | 0.00 | 0.00 | 0.00 | 95 | 1008.8 |
| 20260505230303 | 3 | 265 | 1.6 | 3.2 | 0.00 | 0.00 | 0.00 | 95 | 1008.8 |
| 20260505225802 | 3 | 245 | 0.0 | 3.2 | 0.00 | 0.00 | 0.00 | 95 | 1008.8 |
| 20260505225305 | 2 | 240 | 0.0 | 1.6 | 0.00 | 0.00 | 0.00 | 95 | 1008.5 |
| 20260505224303 | 2 | 162 | 0.0 | 1.6 | 0.00 | 0.00 | 0.00 | 94 | 1008.5 |
| 20260505223803 | 2 | 161 | 0.0 | 1.6 | 0.00 | 0.00 | 0.00 | 94 | 1008.5 |
| 20260505223303 | 2 | 161 | 0.0 | 1.6 | 0.00 | 0.00 | 0.00 | 95 | 1008.5 |
| 20260505222803 | 2 | 162 | 0.0 | 1.6 | 0.00 | 0.00 | 0.00 | 94 | 1008.5 |
| 20260505222305 | 2 | 162 | 0.0 | 1.6 | 0.00 | 0.00 | 0.00 | 94 | 1008.5 |
| 20260505221802 | 2 | 162 | 0.0 | 0.0 | 0.00 | 0.00 | 0.00 | 94 | 1008.5 |
| 20260505221303 | 2 | 162 | 0.0 | 0.0 | 0.00 | 0.00 | 0.00 | 94 | 1008.5 |
| 20260505220816 | 2 | 162 | 0.0 | 0.0 | 0.00 | 0.00 | 0.00 | 94 | 1008.5 |
| 20260505220302 | 2 | 162 | 0.0 | 0.0 | 0.00 | 0.00 | 0.00 | 94 | 1008.3 |
| 20260505215803 | 2 | 161 | 0.0 | 0.0 | 0.00 | 0.00 | 0.00 | 94 | 1008.3 |
| 20260505215305 | 3 | 162 | 0.0 | 3.2 | 0.00 | 0.00 | 0.00 | 94 | 1008.3 |
| 20260505214803 | 3 | 162 | 0.0 | 3.2 | 0.00 | 0.00 | 0.00 | 94 | 1008.3 |
| 20260505214302 | 3 | 162 | 0.0 | 3.2 | 0.00 | 0.00 | 0.00 | 94 | 1008.3 |
| 20260505213803 | 3 | 162 | 0.0 | 0.0 | 0.00 | 0.00 | 0.00 | 94 | 1008.3 |
| 20260505213302 | 3 | 162 | 0.0 | 1.6 | 0.00 | 0.00 | 0.00 | 94 | 1008.2 |
| 20260505212802 | 2 | 38 | 1.6 | 3.2 | 0.00 | 0.00 | 0.00 | 94 | 1008.2 |
| 20260505211803 | 3 | 34 | 0.0 | 3.2 | 0.00 | 0.00 | 0.00 | 93 | 1008.1 |
| 20260505211303 | 3 | 34 | 0.0 | 0.0 | 0.00 | 0.00 | 0.00 | 94 | 1008.1 |
| 20260505210303 | 3 | 34 | 0.0 | 0.0 | 0.00 | 0.00 | 0.00 | 93 | 1007.7 |
| 20260505205803 | 3 | 34 | 0.0 | 0.0 | 0.00 | 0.00 | 0.00 | 94 | 1007.7 |
| 20260505205305 | 3 | 34 | 0.0 | 0.0 | 0.00 | 0.00 | 0.00 | 93 | 1007.7 |
| 20260505204802 | 3 | 34 | 0.0 | 0.0 | 0.00 | 0.00 | 0.00 | 94 | 1007.7 |
| 20260505204302 | 3 | 34 | 0.0 | 0.0 | 0.00 | 0.00 | 0.00 | 94 | 1007.7 |
| 20260505203803 | 3 | 34 | 0.0 | 0.0 | 0.00 | 0.00 | 0.00 | 94 | 1007.7 |
| 20260505203303 | 2 | 34 | 0.0 | 0.0 | 0.00 | 0.00 | 0.00 | 93 | 1007.7 |
| 20260505202803 | 2 | 34 | 0.0 | 0.0 | 0.00 | 0.00 | 0.00 | 93 | 1007.7 |
| 20260505202306 | 2 | 34 | 1.6 | 1.6 | 0.00 | 0.00 | 0.00 | 93 | 1007.7 |
| 20260505201802 | 2 | 34 | 1.6 | 3.2 | 0.00 | 0.00 | 0.00 | 93 | 1007.2 |
| 20260505201302 | 3 | 34 | 1.6 | 1.6 | 0.00 | 0.00 | 0.00 | 93 | 1007.2 |
| 20260505200303 | 3 | 34 | 0.0 | 1.6 | 0.00 | 0.00 | 0.00 | 92 | 1007.2 |
| 20260505195803 | 3 | 34 | 0.0 | 1.6 | 0.00 | 0.00 | 0.00 | 92 | 1007.2 |
| 20260505195305 | 3 | 34 | 0.0 | 0.0 | 0.00 | 0.00 | 0.00 | 92 | 1007.2 |
| 20260505194802 | 3 | 34 | 0.0 | 1.6 | 0.00 | 0.00 | 0.00 | 92 | 1007.2 |
| 20260505194303 | 3 | 34 | 0.0 | 1.6 | 0.00 | 0.00 | 0.00 | 91 | 1007.2 |
| 20260505193303 | 3 | 34 | 0.0 | 1.6 | 0.00 | 0.00 | 0.00 | 91 | 1007.2 |
| 20260505192305 | 4 | 23 | 0.0 | 0.0 | 0.00 | 0.00 | 0.00 | 90 | 1007.2 |
| 20260505191802 | 4 | 23 | 0.0 | 1.6 | 0.00 | 0.00 | 0.00 | 89 | 1007.2 |
| 20260505191303 | 5 | 23 | 0.0 | 3.2 | 0.00 | 0.00 | 0.00 | 89 | 1007.2 |
| 20260505190303 | 5 | 342 | 1.6 | 3.2 | 0.00 | 0.00 | 0.00 | 89 | 1006.6 |
| 20260505185803 | 5 | 4 | 1.6 | 4.8 | 0.00 | 0.00 | 0.00 | 89 | 1006.6 |
| 20260505185305 | 5 | 19 | 0.0 | 4.8 | 0.00 | 0.00 | 0.00 | 88 | 1006.6 |
| 20260505184803 | 5 | 36 | 1.6 | 3.2 | 0.00 | 0.00 | 0.00 | 89 | 1006.6 |
| 20260505184303 | 5 | 40 | 0.0 | 4.8 | 0.00 | 0.00 | 0.00 | 88 | 1006.6 |
| 20260505183803 | 5 | 32 | 0.0 | 3.2 | 0.00 | 0.00 | 0.00 | 88 | 1006.6 |
| 20260505183303 | 5 | 32 | 1.6 | 3.2 | 0.00 | 0.00 | 0.00 | 87 | 1006.6 |
| 20260505182803 | 5 | 31 | 1.6 | 4.8 | 0.00 | 0.00 | 0.00 | 88 | 1006.6 |
| 20260505182305 | 5 | 32 | 1.6 | 4.8 | 0.00 | 0.00 | 0.00 | 87 | 1006.6 |
| 20260505181803 | 6 | 56 | 1.6 | 4.8 | 0.00 | 0.00 | 0.00 | 87 | 1006.6 |
| 20260505181303 | 6 | 15 | 1.6 | 4.8 | 0.00 | 0.00 | 0.00 | 87 | 1006.6 |
| 20260505180803 | 6 | 31 | 1.6 | 4.8 | 0.00 | 0.00 | 0.00 | 87 | 1006.6 |
| 20260505180303 | 6 | 21 | 3.2 | 9.7 | 0.00 | 0.00 | 0.00 | 87 | 1006.6 |
| 20260505175803 | 6 | 1 | 3.2 | 4.8 | 0.00 | 0.00 | 0.00 | 87 | 1006.6 |
| 20260505174803 | 6 | 38 | 1.6 | 4.8 | 0.00 | 0.00 | 0.00 | 87 | 1006.2 |
| 20260505174303 | 6 | 21 | 1.6 | 4.8 | 0.00 | 0.00 | 0.00 | 86 | 1006.2 |
| 20260505173803 | 6 | 26 | 3.2 | 4.8 | 0.00 | 0.00 | 0.00 | 86 | 1006.2 |
| 20260505173303 | 6 | 5 | 4.8 | 9.7 | 0.00 | 0.00 | 0.00 | 85 | 1006.2 |
| 20260505172305 | 6 | 27 | 3.2 | 4.8 | 0.00 | 0.00 | 0.00 | 85 | 1006.2 |
| 20260505171803 | 6 | 20 | 4.8 | 8.0 | 0.00 | 0.00 | 0.00 | 85 | 1006.0 |
| 20260505170803 | 6 | 344 | 3.2 | 8.0 | 0.00 | 0.00 | 0.00 | 85 | 1006.0 |
| 20260505170303 | 6 | 21 | 3.2 | 8.0 | 0.00 | 0.00 | 0.00 | 85 | 1006.0 |
| 20260505165305 | 7 | 21 | 3.2 | 8.0 | 0.00 | 0.00 | 0.00 | 84 | 1005.7 |
| 20260505164803 | 7 | 15 | 3.2 | 8.0 | 0.00 | 0.00 | 0.00 | 84 | 1005.7 |
| 20260505164303 | 7 | 12 | 3.2 | 8.0 | 0.00 | 0.00 | 0.00 | 84 | 1005.7 |
| 20260505163803 | 7 | 39 | 4.8 | 9.7 | 0.00 | 0.00 | 0.00 | 85 | 1005.7 |
| 20260505163303 | 7 | 349 | 3.2 | 8.0 | 0.00 | 0.00 | 0.00 | 85 | 1005.7 |
| 20260505162803 | 7 | 348 | 3.2 | 8.0 | 0.00 | 0.00 | 0.00 | 84 | 1005.7 |
| 20260505161803 | 7 | 13 | 3.2 | 8.0 | 0.00 | 0.00 | 0.00 | 82 | 1005.2 |
| 20260505161303 | 7 | 347 | 3.2 | 12.9 | 0.00 | 0.00 | 0.00 | 82 | 1005.2 |
| 20260505160303 | 7 | 35 | 4.8 | 8.0 | 0.00 | 0.00 | 0.00 | 83 | 1005.2 |
| 20260505153303 | 8 | 4 | 8.0 | 12.9 | 0.00 | 0.00 | 0.00 | 77 | 1005.2 |
| 20260505152803 | 8 | 11 | 3.2 | 12.9 | 0.00 | 0.00 | 0.00 | 74 | 1005.2 |
| 20260505151803 | 10 | 347 | 3.2 | 8.0 | 0.00 | 0.00 | 0.00 | 61 | 1005.2 |
| 20260505150803 | 10 | 21 | 6.4 | 16.1 | 0.00 | 0.00 | 0.00 | 49 | 1005.2 |
| 20260505150302 | 10 | 335 | 3.2 | 9.7 | 0.00 | 0.00 | 0.00 | 42 | 1005.2 |
| 20260505140303 | 11 | 27 | 6.4 | 16.1 | 0.00 | 0.00 | 0.00 | 38 | 1005.0 |
| 20260505130303 | 11 | 327 | 4.8 | 14.5 | 0.00 | 0.00 | 0.00 | 40 | 1004.9 |
| 20260505124803 | 11 | 9 | 6.4 | 9.7 | 0.00 | 0.00 | 0.00 | 40 | 1004.9 |
| 20260505124303 | 11 | 77 | 4.8 | 16.1 | 0.00 | 0.00 | 0.00 | 40 | 1004.9 |
| 20260505122803 | 10 | 304 | 4.8 | 8.0 | 0.00 | 0.00 | 0.00 | 44 | 1004.8 |
| 20260505121803 | 11 | 268 | 11.3 | 19.3 | 0.00 | 0.00 | 0.00 | 40 | 1004.8 |
| 20260505120803 | 11 | 288 | 4.8 | 14.5 | 0.00 | 0.00 | 0.00 | 43 | 1004.8 |
| 20260505120303 | 10 | 283 | 4.8 | 11.3 | 0.00 | 0.00 | 0.00 | 43 | 1004.8 |
| 20260505115305 | 10 | 270 | 9.7 | 19.3 | 0.00 | 0.00 | 0.00 | 43 | 1004.8 |
| 20260505114803 | 10 | 288 | 4.8 | 14.5 | 0.00 | 0.00 | 0.00 | 45 | 1004.7 |
| 20260505113803 | 10 | 282 | 4.8 | 12.9 | 0.00 | 0.00 | 0.00 | 46 | 1004.7 |
| 20260505113303 | 10 | 283 | 4.8 | 14.5 | 0.00 | 0.00 | 0.00 | 50 | 1004.7 |
| 20260505112803 | 10 | 295 | 6.4 | 8.0 | 0.00 | 0.00 | 0.00 | 49 | 1004.7 |
| 20260505112305 | 10 | 2 | 3.2 | 8.0 | 0.00 | 0.00 | 0.00 | 51 | 1004.7 |
| 20260505111803 | 10 | 63 | 3.2 | 16.1 | 0.00 | 0.00 | 0.00 | 50 | 1004.7 |
| 20260505111303 | 10 | 270 | 4.8 | 16.1 | 0.00 | 0.00 | 0.00 | 50 | 1004.7 |
| 20260505110803 | 11 | 213 | 3.2 | 9.7 | 0.00 | 0.00 | 0.00 | 50 | 1004.7 |
| 20260505110303 | 11 | 341 | 3.2 | 9.7 | 0.00 | 0.00 | 0.00 | 50 | 1004.6 |
| 20260505101803 | 9 | 307 | 4.8 | 12.9 | 0.00 | 0.00 | 0.00 | 61 | 1004.3 |
| 20260505100803 | 8 | 57 | 3.2 | 9.7 | 0.00 | 0.00 | 0.00 | 62 | 1004.3 |
| 20260505100303 | 8 | 268 | 3.2 | 8.0 | 0.00 | 0.00 | 0.00 | 61 | 1004.3 |
| 20260505095803 | 8 | 307 | 4.8 | 12.9 | 0.00 | 0.00 | 0.00 | 61 | 1004.3 |
| 20260505094803 | 9 | 304 | 3.2 | 9.7 | 0.00 | 0.00 | 0.00 | 62 | 1004.3 |
| 20260505094303 | 9 | 14 | 4.8 | 11.3 | 0.00 | 0.00 | 0.00 | 61 | 1004.3 |
| 20260505093803 | 9 | 38 | 4.8 | 11.3 | 0.00 | 0.00 | 0.00 | 61 | 1003.6 |